Olathe, KS

11:32 AM CDT on May 26, 2017 (GMT -0500)
Johnson County Executive

Weather History for KOJC - June, 2014

Change the Weather History Date:

Monday, June 23, 2014

  Actual Average Record
Temperature  
Mean Temperature 72 °F 75 °F  
Max Temperature 78 °F 85 °F 99 °F (1988)
Min Temperature 66 °F 66 °F 51 °F (1958)
Degree Days  
Heating Degree Days 0 0  
Month to date heating degree days 1 6  
Since 1 June heating degree days 1 6  
Since 1 July heating degree days 5693 4932  
Cooling Degree Days 7 10  
Month to date cooling degree days 176 181  
Year to date cooling degree days 329 285  
Since 1 June cooling degree days 176 181  
Growing Degree Days 22 (Base 50)    
Moisture  
Dew Point 66 °F    
Average Humidity 84    
Maximum Humidity 100    
Minimum Humidity 67    
Precipitation  
Precipitation 0.01 in 0.21 in 1.61 in (1987)
Month to date precipitation 7.35 4.78  
Year to date precipitation 14.93 19.52  
Sea Level Pressure  
Sea Level Pressure 29.88 in    
Wind  
Wind Speed 6 mph (WNW)    
Max Wind Speed 14 mph    
Max Gust Speed 19 mph    
Visibility 10 miles    
Events Rain    
T = Trace of Precipitation, MM = Missing Value Source: NWS Daily Summary

Daily Weather History Graph

Daily Weather History Graph

Search for Another Location

Airport or City:

Trip Planner

Search our weather history database for the weather conditions in past years. The results will help you decide how hot, cold, wet, or windy it might be!

Date:

Astronomy

Jun. 23, 2014 Rise Set
Actual Time 5:54 AM CDT 8:47 PM CDT
Civil Twilight 5:22 AM CDT 9:19 PM CDT
Nautical Twilight 4:42 AM CDT 10:00 PM CDT
Astronomical Twilight 3:55 AM CDT 10:46 PM CDT
Moon 3:19 AM CDT (6/23) 5:31 PM CDT (6/23)
Length of Visible Light 15h 57m
Length of Day
14h 53m
Waning Crescent, 13% of the Moon is Illuminated
Jun 23
Waning Crescent
Jun 27
New
Jul 5
First Quarter
Jul 12
Full
Jul 18
Last Quarter

Hourly Weather History & Observations

Time (CDT) Temp. Dew Point Humidity Pressure Visibility Wind Dir Wind Speed Gust Speed Precip Events Conditions
12:53 AM 66.0 °F 64.9 °F 96% 29.83 in 10.0 mi SSW 8.1 mph - 0.04 in Rain Light Rain
1:05 AM 66.0 °F 64.9 °F 96% 29.86 in 10.0 mi SSW 8.1 mph - 0.00 in Rain Light Rain
1:53 AM 66.0 °F 64.9 °F 96% 29.86 in 10.0 mi SW 6.9 mph - 0.00 in   Overcast
2:49 AM 66.2 °F 64.4 °F 94% 29.88 in 10.0 mi South 8.1 mph - 0.01 in Rain Light Rain
2:53 AM 66.0 °F 64.9 °F 96% 29.84 in 10.0 mi SSW 6.9 mph - 0.01 in   Overcast
3:53 AM 66.0 °F 64.9 °F 96% 29.83 in 10.0 mi NW 6.9 mph - 0.00 in Rain Light Rain
4:53 AM 66.0 °F 64.9 °F 96% 29.80 in 10.0 mi NNW 13.8 mph - 0.00 in   Clear
5:53 AM 66.0 °F 64.9 °F 96% 29.81 in 10.0 mi NW 5.8 mph - N/A   Partly Cloudy
6:53 AM 66.9 °F 66.0 °F 97% 29.84 in 10.0 mi South 5.8 mph - N/A   Clear
7:01 AM 66.9 °F 66.0 °F 97% 29.88 in 10.0 mi Calm Calm - N/A   Partly Cloudy
7:53 AM 68.0 °F 66.0 °F 93% 29.85 in 10.0 mi SSW 3.5 mph - N/A   Clear
8:41 AM 68.0 °F 66.0 °F 93% 29.89 in 10.0 mi Calm Calm - N/A   Mostly Cloudy
8:53 AM 69.1 °F 66.0 °F 90% 29.87 in 10.0 mi West 3.5 mph - N/A   Mostly Cloudy
9:00 AM 69.1 °F 66.0 °F 90% 29.89 in 10.0 mi Calm Calm - N/A   Mostly Cloudy
9:08 AM 69.1 °F 66.0 °F 90% 29.89 in 10.0 mi West 3.5 mph - N/A   Overcast
9:53 AM 69.1 °F 66.0 °F 90% 29.88 in 10.0 mi West 3.5 mph - N/A   Scattered Clouds
10:53 AM 69.1 °F 66.9 °F 93% 29.91 in 10.0 mi Calm Calm - N/A   Overcast
11:53 AM 72.0 °F 66.9 °F 84% 29.92 in 10.0 mi NNW 4.6 mph - N/A   Mostly Cloudy
12:48 PM 73.4 °F 66.2 °F 78% 29.95 in 10.0 mi North 6.9 mph - N/A   Mostly Cloudy
12:53 PM 73.9 °F 66.9 °F 79% 29.92 in 10.0 mi North 4.6 mph - N/A   Scattered Clouds
1:05 PM 73.0 °F 66.9 °F 81% 29.94 in 10.0 mi Variable 4.6 mph - N/A   Mostly Cloudy
1:53 PM 73.9 °F 66.0 °F 76% 29.91 in 10.0 mi NNW 6.9 mph - N/A   Mostly Cloudy
2:46 PM 75.0 °F 66.0 °F 73% 29.92 in 10.0 mi North 9.2 mph - N/A   Mostly Cloudy
2:53 PM 75.0 °F 66.9 °F 76% 29.88 in 10.0 mi North 6.9 mph - N/A   Mostly Cloudy
5:53 PM 77.0 °F 66.0 °F 69% 29.88 in 10.0 mi North 8.1 mph - N/A   Partly Cloudy
6:53 PM 78.1 °F 66.0 °F 66% 29.89 in 10.0 mi NNW 10.4 mph - N/A   Partly Cloudy
7:53 PM 77.0 °F 66.0 °F 69% 29.88 in 10.0 mi Calm Calm - N/A   Clear
8:53 PM 73.9 °F 66.9 °F 79% 29.88 in 10.0 mi Calm Calm - N/A   Clear
9:53 PM 73.0 °F 66.9 °F 81% 29.91 in 10.0 mi NW 3.5 mph - N/A   Partly Cloudy
10:53 PM 70.0 °F 66.0 °F 87% 29.94 in 10.0 mi NW 5.8 mph - N/A   Clear
11:53 PM 69.1 °F 63.0 °F 81% 29.94 in 10.0 mi NW 5.8 mph - N/A   Clear